Weather History for KMBG - March, 2013

Change the Weather History Date:

Tuesday, March 5, 2013

  Actual Average Record
Temperature  
Mean Temperature 20 °F 27 °F  
Max Temperature 25 °F 37 °F 77 °F (2000)
Min Temperature 15 °F 17 °F -20 °F (1919)
Degree Days  
Heating Degree Days 45 38  
Month to date heating degree days 181 194  
Since 1 July heating degree days 5997 6169  
Cooling Degree Days 0 0  
Month to date cooling degree days 0 0  
Year to date cooling degree days 0 0  
Moisture  
Dew Point 13 °F    
Average Humidity 73    
Maximum Humidity 84    
Minimum Humidity 62    
Precipitation  
Precipitation 0.01 in 0.03 in 1.04 in (1983)
Month to date precipitation 0.08 0.12  
Year to date precipitation 1.04 0.85  
Snow  
Snow 0.00 in - - ()
Month to date snowfall 1.0  
Since 1 July snowfall 25.3  
Snow Depth -    
Sea Level Pressure  
Sea Level Pressure 30.30 in    
Wind  
Wind Speed 16 mph (North)    
Max Wind Speed 31 mph    
Max Gust Speed 40 mph    
Visibility 9 miles    
Events Snow    
T = Trace of Precipitation, MM = Missing Value Source: NWS Daily Summary

Daily Weather History Graph

Daily Weather History Graph

Search for Another Location

Airport or City:

Trip Planner

Search our weather history database for the weather conditions in past years. The results will help you decide how hot, cold, wet, or windy it might be!

Date:

Astronomy

Mar. 05, 2013 Rise Set
Actual Time 7:12 AM CST 6:34 PM CST
Civil Twilight 6:42 AM CST 7:04 PM CST
Nautical Twilight 6:08 AM CST 7:38 PM CST
Astronomical Twilight 5:33 AM CST 8:13 PM CST
Moon 2:39 AM CST (3/5) 12:02 PM CST (3/5)
Length of Visible Light 12h 21m
Length of Day
11h 22m
Last Quarter, 40% of the Moon is Illuminated
Mar 5
Last Quarter
Mar 11
New
Mar 19
First Quarter
Mar 27
Full
Apr 2
Last Quarter

Hourly Weather History & Observations

Time (CST) Temp. Windchill Dew Point Humidity Pressure Visibility Wind Dir Wind Speed Gust Speed Precip Events Conditions
12:06 AM 21.2 °F 3.5 °F 17.6 °F 86% 29.97 in 2.5 mi NNW 27.6 mph 39.1 mph 0.00 in Snow Light Snow
12:38 AM 21.2 °F 3.9 °F 17.6 °F 86% 29.99 in 3.0 mi NNW 26.5 mph 39.1 mph 0.00 in Snow Light Snow
12:52 AM 21.9 °F 3.7 °F 17.1 °F 82% 30.06 in 5.0 mi NNW 31.1 mph 39.1 mph 0.00 in Snow Light Snow
1:01 AM 21.2 °F 4.2 °F 17.6 °F 86% 30.00 in 7.0 mi NNW 25.3 mph 40.3 mph 0.00 in Snow Light Snow
1:26 AM 21.2 °F 4.5 °F 17.6 °F 86% 30.02 in 8.0 mi NNW 24.2 mph 36.8 mph 0.00 in Snow Light Snow
1:52 AM 21.9 °F 4.5 °F 16.0 °F 78% 30.12 in 10.0 mi NNW 27.6 mph 39.1 mph 0.00 in   Overcast
2:52 AM 21.0 °F 3.6 °F 16.0 °F 81% 30.17 in 4.0 mi NNW 26.5 mph 38.0 mph 0.00 in Snow Light Snow
3:11 AM 21.2 °F 4.5 °F 15.8 °F 80% 30.11 in 7.0 mi NNW 24.2 mph 35.7 mph 0.00 in Snow Light Snow
3:52 AM 19.9 °F 2.8 °F 15.1 °F 81% 30.21 in 9.0 mi NNW 24.2 mph 34.5 mph 0.01 in   Overcast
4:34 AM 19.4 °F 2.8 °F 14.0 °F 80% 30.16 in 10.0 mi NNW 21.9 mph 33.4 mph N/A   Overcast
4:52 AM 19.9 °F 3.2 °F 14.0 °F 78% 30.26 in 9.0 mi NNW 23.0 mph 34.5 mph 0.00 in Snow Light Snow
5:52 AM 19.9 °F 4.3 °F 14.0 °F 78% 30.30 in 6.0 mi NNW 19.6 mph 31.1 mph 0.00 in Snow Light Snow
6:52 AM 18.0 °F 1.3 °F 12.9 °F 81% 30.32 in 9.0 mi NNW 20.7 mph 31.1 mph 0.00 in Snow Light Snow
7:52 AM 17.1 °F 1.0 °F 12.0 °F 81% 30.35 in 7.0 mi NNW 18.4 mph 27.6 mph 0.00 in   Overcast
8:05 AM 17.6 °F 0.9 °F 10.4 °F 73% 30.26 in 6.0 mi NNW 20.7 mph 27.6 mph 0.00 in Snow Light Snow
8:52 AM 17.1 °F 0.1 °F 10.9 °F 77% 30.37 in 8.0 mi NNW 20.7 mph 32.2 mph 0.00 in   Overcast
9:09 AM 17.6 °F 1.7 °F 10.4 °F 73% 30.29 in 10.0 mi NNW 18.4 mph 24.2 mph N/A   Overcast
9:52 AM 19.0 °F 4.0 °F 12.0 °F 74% 30.40 in 10.0 mi NNW 17.3 mph 24.2 mph N/A   Overcast
10:31 AM 21.2 °F 6.0 °F 12.2 °F 68% 30.30 in 10.0 mi NNW 19.6 mph 26.5 mph N/A   Partly Cloudy
10:52 AM 21.9 °F 7.3 °F 12.9 °F 68% 30.40 in 10.0 mi NNW 18.4 mph 26.5 mph N/A   Clear
11:21 AM 21.2 °F 7.8 °F 12.2 °F 68% 30.33 in 10.0 mi NNW 15.0 mph 26.5 mph N/A   Mostly Cloudy
11:52 AM 23.0 °F 8.7 °F 12.9 °F 65% 30.42 in 10.0 mi NNW 18.4 mph 27.6 mph N/A   Overcast
12:52 PM 23.0 °F 8.0 °F 14.0 °F 68% 30.41 in 10.0 mi North 20.7 mph 24.2 mph N/A   Overcast
1:52 PM 23.0 °F 10.6 °F 14.0 °F 68% 30.41 in 10.0 mi North 13.8 mph - N/A   Overcast
2:52 PM 24.1 °F 12.0 °F 14.0 °F 65% 30.41 in 10.0 mi North 13.8 mph - N/A   Overcast
3:52 PM 24.1 °F 12.5 °F 14.0 °F 65% 30.41 in 10.0 mi NNW 12.7 mph - N/A   Overcast
4:52 PM 21.9 °F 10.4 °F 12.9 °F 68% 30.42 in 10.0 mi North 11.5 mph - N/A   Mostly Cloudy
5:15 PM 21.2 °F 9.5 °F 12.2 °F 68% 30.33 in 10.0 mi North 11.5 mph - N/A   Scattered Clouds
5:44 PM 21.2 °F 10.9 °F 12.2 °F 68% 30.33 in 10.0 mi North 9.2 mph - N/A   Mostly Cloudy
5:52 PM 21.0 °F 12.4 °F 12.9 °F 71% 30.43 in 10.0 mi North 6.9 mph - N/A   Mostly Cloudy
6:52 PM 19.9 °F 12.1 °F 12.9 °F 74% 30.43 in 10.0 mi North 5.8 mph - N/A   Overcast
7:52 PM 19.9 °F 11.1 °F 12.9 °F 74% 30.42 in 10.0 mi NE 6.9 mph - N/A   Overcast
8:52 PM 21.0 °F 14.6 °F 14.0 °F 74% 30.42 in 10.0 mi NNW 4.6 mph - N/A   Overcast
9:52 PM 18.0 °F 9.8 °F 12.0 °F 78% 30.43 in 10.0 mi NE 5.8 mph - N/A   Overcast
10:48 PM 15.8 °F 7.2 °F 10.4 °F 79% 30.34 in 10.0 mi ENE 5.8 mph - N/A   Scattered Clouds
10:52 PM 16.0 °F 7.4 °F 10.9 °F 81% 30.44 in 10.0 mi ENE 5.8 mph - N/A   Scattered Clouds
11:38 PM 15.8 °F 6.1 °F 10.4 °F 79% 30.35 in 10.0 mi ENE 6.9 mph - N/A   Mostly Cloudy
11:52 PM 15.1 °F 4.2 °F 10.9 °F 84% 30.44 in 10.0 mi East 8.1 mph - N/A   Overcast